Theta_e
314 315 314 314 313 310 308 310 309 310 309 309 307 308 309 311 310 309 310 310 311 311 310 313 314 312 312 315 316 315 315 317 318 319 318 318 319 318 319 321 320 320 317 316
314 315 311 310 311 313 312 312 311 309 310 311 309 310 307 308 309 309 310 311 310 310 310 313 312 313 312 315 316 316 315 316 319 319 320 318 317 318 316 320 321 321 320 320
312 310 311 311 311 312 313 312 311 311 310 309 308 310 308 307 308 309 310 309 310 309 311 313 312 313 313 315 316 316 316 316 319 320 319 319 319 315 315 319 319 320 319 320
312 310 310 311 312 311 312 310 312 312 311 309 307 309 306 305 304 304 304 306 309 312 313 314 314 314 314 315 315 315 316 317 320 320 319 321 319 315 316 318 318 318 319 319
310 311 311 312 311 311 312 310 311 311 309 309 309 308 307 303 304 303 302 308 312 313 314 314 315 315 315 315 315 316 318 320 320 320 322 322 318 316 315 318 319 319 319 318
308 307 309 310 311 311 310 310 308 309 309 311 308 308 306 303 306 307 308 311 313 313 314 314 314 315 316 316 317 320 320 321 321 323 323 320 318 318 315 316 318 319 319 317
308 309 308 309 310 310 311 311 313 314 313 310 298 305 305 304 304 305 306 309 309 311 313 313 314 315 316 317 319 321 323 324 323 324 323 317 317 318 318 316 318 317 318 316
310 306 307 306 309 310 310 312 307 308 308 307 305 307 305 300 298 299 299 299 304 307 309 313 314 316 316 318 318 326 325 322 323 324 321 316 314 315 318 318 319 319 317 316
299 304 298 300 298 303 309 312 307 304 303 302 305 305 301 298 297 296 296 296 297 300 306 309 314 321 319 320 323 327 322 323 324 324 321 317 315 314 315 317 319 317 316 315
294 297 297 298 299 298 302 301 311 312 309 308 305 304 300 296 295 294 294 294 295 299 303 306 308 314 323 326 326 324 323 323 325 324 323 322 321 321 315 313 313 314 316 313
293 293 295 297 295 296 298 296 298 303 303 305 303 302 298 295 294 293 293 294 294 297 301 303 305 307 314 320 325 326 324 322 324 323 323 323 322 321 319 312 313 313 313 312
292 294 294 293 296 295 294 294 294 299 302 298 298 303 295 292 292 293 293 293 294 295 298 301 302 305 307 317 322 325 325 322 322 321 324 323 323 322 320 320 320 315 312 312
293 293 292 297 297 293 294 293 294 294 293 296 300 300 295 294 292 292 293 293 294 294 295 299 301 302 304 305 310 321 323 322 321 323 323 323 323 323 322 321 318 319 319 315
292 292 291 291 292 292 292 292 292 293 293 292 292 292 293 292 292 292 293 293 293 294 295 296 298 299 302 304 304 309 318 323 324 323 322 322 322 323 322 318 318 319 319 319
289 288 290 291 291 291 291 289 290 291 292 292 291 291 291 290 291 290 289 289 290 292 293 294 296 299 299 304 303 304 308 317 322 323 323 321 320 320 321 322 318 319 319 320
287 284 289 289 290 291 289 285 287 288 289 290 288 290 287 287 286 286 286 286 287 290 292 293 295 300 298 302 303 304 304 308 316 320 321 321 320 319 320 320 320 321 321 321
287 285 288 286 289 289 285 283 285 286 285 285 287 284 283 284 284 284 284 284 286 289 291 293 294 296 299 300 304 304 304 305 313 319 319 319 319 320 319 319 319 320 322 321
289 289 291 287 290 285 284 283 283 283 284 284 283 282 282 283 283 283 283 284 287 290 291 293 294 295 299 299 303 304 305 305 317 319 318 317 317 320 320 318 319 320 320 321
283 285 288 290 288 284 283 282 282 282 282 282 281 282 282 282 282 283 285 286 287 290 290 291 292 294 299 299 304 304 305 306 313 316 315 315 316 317 319 320 320 320 320 319
282 279 278 282 283 285 282 282 282 282 282 281 281 281 281 281 282 283 284 285 285 286 288 290 291 295 298 302 305 304 304 307 309 312 313 315 314 317 317 317 318 320 319 320
281 280 280 282 283 284 282 281 281 281 281 281 281 281 281 282 282 282 282 282 284 284 287 290 290 298 298 304 305 303 305 305 307 309 310 311 311 313 314 314 316 316 316 319
280 277 281 282 281 280 281 281 280 281 281 280 281 281 281 281 282 283 284 285 286 285 288 290 291 298 301 304 304 304 304 304 305 306 307 309 309 309 310 310 311 313 314 315
280 280 281 281 282 282 280 280 280 279 279 280 280 280 281 282 283 286 289 289 287 285 288 289 295 297 302 303 303 303 303 303 305 305 306 307 308 307 307 308 309 309 310 311
279 280 280 279 280 279 279 279 279 278 279 279 280 280 281 281 282 285 286 286 286 286 289 293 295 297 302 302 303 304 304 303 304 305 305 305 305 306 306 307 307 308 308 308
278 279 278 279 280 278 279 279 278 278 279 279 279 279 280 281 281 282 284 284 287 290 292 293 293 298 301 301 300 302 303 302 303 303 304 304 304 305 305 305 305 305 305 305
278 277 277 277 278 277 278 278 277 278 278 279 279 279 280 280 280 281 281 282 284 285 287 288 288 292 297 297 299 298 301 300 301 301 301 301 302 302 302 302 302 302 302 302
Wind_Speed
14 11 16 19 18 8 5 3 3 1 4 7 9 16 9 17 16 14 28 34 37 37 30 19 19 24 29 34 33 29 31 34 40 39 35 34 35 36 39 40 35 40 38 37
5 22 9 5 9 12 10 9 13 5 5 4 8 23 11 10 17 23 29 35 31 32 21 17 19 23 28 33 35 32 30 35 40 38 33 31 37 36 45 44 40 38 40 41
13 3 18 15 8 10 15 14 3 7 5 5 7 18 8 8 16 23 31 29 21 18 17 18 18 21 25 32 34 30 32 35 38 34 29 30 33 27 40 53 45 37 26 42
13 14 6 7 14 11 16 7 11 8 2 3 1 7 5 7 8 5 8 16 12 8 11 13 13 18 22 28 27 28 31 35 36 35 31 32 37 40 43 57 50 50 30 46
8 6 8 15 14 12 8 7 8 9 4 2 4 2 8 2 6 6 8 5 4 4 6 7 10 12 17 23 25 26 28 33 34 30 32 36 42 39 45 43 46 36 42 44
13 5 6 5 2 12 6 3 4 1 3 5 11 8 5 2 3 7 6 5 7 2 2 5 10 14 18 19 21 22 26 31 32 29 29 27 39 42 41 48 50 38 44 46
8 12 4 5 9 7 6 7 3 6 4 5 1 4 7 10 14 10 7 17 19 14 4 5 10 12 15 16 18 16 21 26 25 24 20 18 31 41 38 46 48 43 50 48
10 3 8 1 14 7 9 7 5 7 5 3 3 6 3 6 15 26 30 27 33 30 22 11 9 12 14 15 14 14 17 19 24 18 20 20 22 29 39 43 41 49 51 47
5 1 4 5 5 1 7 7 5 5 3 3 4 3 4 15 20 22 27 33 32 37 29 21 10 9 11 12 13 16 14 18 19 15 14 21 27 24 28 37 38 44 46 47
6 4 8 7 5 12 5 4 4 4 6 4 2 1 3 13 16 17 19 23 30 38 38 31 19 12 10 10 12 13 14 18 16 16 15 12 15 24 30 26 29 35 43 43
6 4 7 8 7 7 4 5 4 2 1 5 4 2 5 7 7 12 13 21 25 30 35 36 31 18 11 11 11 11 12 13 15 17 18 17 11 15 28 33 30 31 33 37
4 2 4 3 11 13 13 7 7 3 2 2 1 3 10 7 9 17 18 23 24 28 31 33 35 26 19 14 9 10 11 13 12 15 19 21 16 16 18 23 29 33 32 32
4 2 3 1 4 5 6 7 5 4 1 5 1 2 8 12 16 22 21 26 28 28 32 33 34 33 28 19 15 10 9 11 12 9 12 17 19 23 19 19 21 25 31 33
4 2 2 2 1 2 3 8 6 3 2 5 4 7 9 18 18 19 25 27 28 28 29 31 33 34 31 25 16 12 9 8 7 9 6 9 10 14 17 13 12 21 25 29
3 2 2 3 4 3 6 12 10 2 4 4 5 14 13 14 16 18 22 31 34 33 30 32 31 32 32 32 17 11 8 7 8 10 10 8 7 11 12 16 14 19 15 15
4 0 1 3 3 5 9 17 15 10 7 5 11 10 15 20 23 26 31 32 32 36 35 32 30 29 32 33 21 17 11 7 7 12 10 9 7 10 14 15 15 18 21 27
4 2 3 3 1 6 5 16 12 12 12 9 7 10 17 22 23 29 29 34 36 39 33 28 28 28 32 29 26 22 16 9 6 8 13 13 11 10 11 13 17 17 17 16
3 0 2 3 1 3 5 13 8 13 8 9 15 14 18 21 32 34 38 31 36 32 28 28 28 28 29 26 25 26 18 9 5 6 8 8 10 12 13 13 11 11 11 14
12 3 1 1 4 4 12 14 12 11 10 5 19 21 29 30 37 32 23 24 24 25 32 33 32 29 28 24 25 25 16 10 6 6 7 7 9 10 11 13 13 13 14 14
12 6 4 3 3 3 8 15 26 6 8 26 32 26 31 36 15 19 23 20 26 28 32 33 32 29 27 20 26 19 13 9 8 6 6 7 7 9 11 13 12 16 13 13
7 4 8 6 3 6 18 22 20 3 9 40 35 36 37 21 29 58 53 50 51 45 41 35 29 24 22 20 20 14 9 9 6 3 7 8 6 7 7 8 8 13 15 13
7 3 4 5 5 4 29 10 9 14 26 32 33 36 39 45 53 55 49 45 42 37 31 26 25 21 21 21 16 9 7 5 6 7 10 10 8 8 8 7 8 7 8 10
5 5 2 4 3 11 23 15 21 27 29 28 34 38 37 40 42 31 30 22 23 25 22 18 20 19 21 17 15 11 11 10 9 8 11 13 12 9 8 6 7 5 6 5
8 19 3 5 4 23 16 25 32 34 32 34 33 35 33 36 34 29 19 10 3 4 9 13 16 21 22 17 17 13 15 13 13 13 13 14 13 13 9 9 9 7 7 6
6 8 8 4 6 22 5 30 33 35 35 38 37 36 34 38 39 31 33 31 25 17 13 11 15 24 21 19 18 18 17 16 16 15 15 15 16 16 16 14 12 10 10 7
11 4 4 3 17 13 21 30 30 33 36 36 37 39 41 39 35 34 40 38 29 23 18 17 15 21 26 23 20 19 18 18 19 20 19 18 18 18 16 16 16 13 11 8
Wind_Direction
194 208 214 207 211 219 108 225 242 298 301 339 280 275 254 258 265 247 267 275 278 281 290 280 262 234 232 232 223 223 226 227 225 221 223 229 235 237 223 223 231 232 210 210
180 230 208 200 208 229 254 265 266 257 242 250 295 283 266 252 256 247 255 267 271 281 273 272 263 235 224 222 221 225 229 229 226 226 229 246 259 249 234 214 214 216 218 212
209 219 198 199 199 213 234 239 234 245 309 269 291 283 260 254 250 245 250 263 267 266 270 277 265 238 221 217 222 226 231 230 224 223 235 261 254 230 215 212 210 209 225 217
230 235 226 197 221 202 244 190 228 235 226 227 100 291 323 292 297 255 233 262 265 237 261 272 251 228 215 215 221 229 231 233 224 224 244 257 226 217 214 210 205 218 228 216
211 168 201 227 225 187 228 159 207 223 211 213 208 309 276 322 330 311 298 225 189 241 256 248 231 223 220 222 230 231 230 231 226 236 248 249 215 206 205 204 195 193 209 211
215 204 163 191 172 210 213 200 92 46 193 261 207 177 277 311 349 342 354 68 55 87 224 236 234 230 231 235 235 229 235 235 235 241 255 256 214 208 203 209 203 197 205 208
221 232 188 187 258 249 175 165 181 212 191 224 257 111 249 339 352 320 347 21 19 19 12 242 240 244 239 242 237 235 235 229 238 248 268 236 198 203 209 200 201 206 209 205
209 213 176 270 215 186 187 184 175 180 186 196 156 210 19 13 38 41 42 30 35 28 21 347 275 250 246 245 240 231 239 243 243 243 241 203 174 183 201 207 203 207 203 205
351 206 336 60 13 313 171 200 187 105 22 89 198 228 35 17 24 24 28 25 16 19 23 20 348 299 264 251 238 231 246 243 239 242 224 198 183 169 185 188 195 198 203 210
12 301 39 1 347 24 22 360 164 182 166 199 216 301 89 20 10 10 15 13 7 12 22 22 15 347 299 266 251 238 243 241 242 236 215 200 207 190 182 190 202 211 212 212
11 16 336 30 21 3 12 24 330 295 79 166 152 222 146 76 18 13 1 359 3 8 13 21 21 9 339 290 263 242 240 239 243 233 231 217 211 203 196 196 199 209 215 218
356 20 20 340 91 80 72 45 29 339 42 21 138 136 140 72 26 10 357 351 355 4 7 11 20 21 16 352 311 261 233 236 239 234 237 234 224 231 216 207 212 209 212 222
330 115 9 267 180 62 44 27 51 308 335 49 17 178 180 7 5 360 353 348 356 354 4 4 10 15 16 7 349 321 270 241 240 224 221 233 230 226 226 241 220 212 216 215
42 54 132 229 335 355 41 31 22 93 14 353 279 307 341 343 346 354 355 357 351 353 356 356 355 1 4 1 357 336 315 274 245 235 233 226 229 223 246 220 247 249 227 219
64 133 77 265 282 2 5 29 1 330 207 230 291 300 356 4 353 4 351 347 340 338 344 345 343 342 353 357 355 345 315 304 253 230 241 233 223 219 226 215 223 248 232 223
10 1 136 294 228 206 78 15 359 11 5 330 332 291 6 4 350 350 341 338 326 323 327 332 335 330 340 349 346 351 331 292 265 230 227 236 239 216 225 221 220 239 228 226
5 32 41 305 302 124 44 7 347 335 326 317 331 10 354 342 334 328 322 314 309 314 318 317 319 323 322 336 336 341 342 319 275 231 215 216 234 231 210 213 217 228 227 225
355 223 225 243 342 37 138 19 341 330 289 24 9 345 329 317 312 307 303 291 302 307 302 305 312 313 307 319 321 318 329 323 272 218 198 202 219 221 219 216 214 208 220 226
20 327 87 291 64 133 20 351 336 343 297 23 351 331 326 325 315 299 300 295 292 275 286 292 302 303 292 305 305 306 315 317 269 224 212 204 209 217 208 208 212 218 219 215
12 42 85 20 77 100 357 333 322 290 277 352 340 328 324 327 310 291 303 291 283 277 276 283 295 294 273 283 289 291 299 306 277 235 219 204 204 194 203 206 195 211 218 221
352 359 31 16 50 102 10 343 338 39 319 324 325 317 314 304 286 287 290 283 280 278 276 275 282 280 247 259 267 275 281 281 261 181 194 200 198 207 198 208 201 212 212 214
15 22 6 3 28 1 1 351 17 311 315 316 317 315 312 308 302 294 288 273 272 265 265 262 273 268 244 240 247 248 216 203 205 211 205 203 193 205 219 217 220 212 208 207
41 359 327 27 33 353 340 339 337 335 323 325 323 324 322 322 323 316 307 279 259 251 249 258 259 243 219 219 223 210 190 181 191 184 167 170 167 159 154 147 169 178 201 196
354 12 24 345 9 341 329 347 347 346 336 335 342 339 344 348 354 16 6 356 7 262 249 242 236 214 209 200 195 211 177 178 187 182 158 145 143 147 149 151 156 165 189 210
348 336 318 288 343 334 330 344 343 345 355 358 360 358 360 16 10 22 47 50 72 96 118 154 180 188 186 182 177 172 171 175 180 172 158 153 146 141 139 142 134 139 138 150
357 344 4 301 327 317 300 331 346 354 357 2 2 6 19 20 23 28 44 53 63 72 91 107 108 146 163 170 161 152 160 169 169 157 151 150 145 139 137 134 132 133 126 133